Chicago, IL

5:34 AM CDT on May 26, 2017 (GMT -0500)
Chicago-O'Hare International

Weather History for KORD - February, 2013

Change the Weather History Date:

Thursday, February 28, 2013

  Actual Average Record
Temperature  
Mean Temperature 31 °F 32 °F  
Max Temperature 35 °F 40 °F 62 °F (2016)
Min Temperature 27 °F 24 °F -10 °F (2015)
Degree Days  
Heating Degree Days 34 33  
Month to date heating degree days 1083 1043  
Since 1 July heating degree days 4402 4734  
Cooling Degree Days 0 0  
Month to date cooling degree days 0 0  
Year to date cooling degree days 0 0  
Moisture  
Dew Point 27 °F    
Average Humidity 83    
Maximum Humidity 96    
Minimum Humidity 69    
Precipitation  
Precipitation 0.02 in 0.08 in 1.35 in (1882)
Month to date precipitation 2.96 1.79  
Year to date precipitation 6.59 3.52  
Snow  
Snow 0.20 in 0.30 in 11.30 in (1900)
Month to date snowfall 16.1 9.1  
Since 1 July snowfall 19.6 29.5  
Snow Depth 4.00 in    
Sea Level Pressure  
Sea Level Pressure 29.90 in    
Wind  
Wind Speed 13 mph (North)    
Max Wind Speed 22 mph    
Max Gust Speed 39 mph    
Visibility 8 miles    
Events Snow    
T = Trace of Precipitation, MM = Missing Value Source: NWS Daily Summary

Daily Weather History Graph

Daily Weather History Graph

Search for Another Location

Airport or City:

Trip Planner

Search our weather history database for the weather conditions in past years. The results will help you decide how hot, cold, wet, or windy it might be!

Date:

Astronomy

Feb. 28, 2013 Rise Set
Actual Time 6:27 AM CST 5:40 PM CST
Civil Twilight 5:59 AM CST 6:08 PM CST
Nautical Twilight 5:27 AM CST 6:41 PM CST
Astronomical Twilight 4:55 AM CST 7:13 PM CST
Moon 9:12 PM CST (2/28) 7:33 AM CST (2/28)
Length of Visible Light 12h 09m
Length of Day
11h 13m
Waning Gibbous, 90% of the Moon is Illuminated
Feb 28
Waning Gibbous
Mar 4
Last Quarter
Mar 11
New
Mar 19
First Quarter
Mar 27
Full

Hourly Weather History & Observations

Time (CST) Temp. Windchill Dew Point Humidity Pressure Visibility Wind Dir Wind Speed Gust Speed Precip Events Conditions
12:15 AM 33.8 °F 24.3 °F 30.2 °F 87% 29.68 in 6.0 mi NNW 13.8 mph - 0.00 in Snow Light Snow
12:51 AM 33.1 °F 23.4 °F 30.9 °F 92% 29.71 in 4.0 mi NNW 13.8 mph - 0.00 in Snow Light Snow
1:13 AM 33.8 °F 25.8 °F 30.2 °F 87% 29.70 in 7.0 mi NNW 10.4 mph - 0.00 in Snow Light Snow
2:51 AM 33.1 °F 24.4 °F 30.9 °F 92% 29.74 in 5.0 mi NNW 11.5 mph - 0.00 in Snow Light Snow
3:06 AM 33.8 °F 23.2 °F 30.2 °F 87% 29.72 in 4.0 mi NNW 17.3 mph 24.2 mph 0.00 in Snow Light Snow
3:16 AM 33.8 °F 24.3 °F 30.2 °F 87% 29.72 in 4.0 mi NNW 13.8 mph - 0.01 in Snow Light Snow
3:51 AM 33.1 °F 23.9 °F 30.9 °F 92% 29.76 in 4.0 mi NNW 12.7 mph - 0.01 in Snow Light Snow
4:08 AM 33.8 °F 24.3 °F 30.2 °F 87% 29.74 in 5.0 mi NNW 13.8 mph - 0.00 in Snow Light Snow
4:51 AM 33.1 °F 23.4 °F 30.9 °F 92% 29.78 in 6.0 mi NNW 13.8 mph - 0.00 in Snow Light Snow
5:09 AM 33.8 °F 24.8 °F 30.2 °F 87% 29.77 in 6.0 mi NNW 12.7 mph - 0.00 in Snow Light Snow
5:39 AM 33.8 °F 24.8 °F 30.2 °F 87% 29.78 in 8.0 mi NNW 12.7 mph - 0.00 in Snow Light Snow
5:51 AM 33.1 °F 23.0 °F 30.9 °F 92% 29.81 in 9.0 mi NNW 15.0 mph - 0.00 in Snow Light Snow
6:51 AM 33.1 °F 23.0 °F 30.0 °F 89% 29.83 in 10.0 mi NNW 15.0 mph - 0.00 in   Overcast
7:36 AM 33.8 °F 23.9 °F 30.2 °F 87% 29.83 in 10.0 mi NNW 15.0 mph - 0.00 in Snow Light Snow
7:51 AM 33.8 °F 23.9 °F 30.2 °F 87% 29.84 in 10.0 mi North 15.0 mph - N/A   Overcast
8:51 AM 33.1 °F 23.4 °F 30.9 °F 92% 29.88 in 4.0 mi North 13.8 mph - 0.00 in Snow Light Snow
9:06 AM 33.8 °F 24.8 °F 30.2 °F 87% 29.86 in 2.5 mi North 12.7 mph - 0.00 in Snow Light Snow
9:51 AM 33.1 °F 23.9 °F 32.0 °F 96% 29.90 in 2.5 mi North 12.7 mph - 0.01 in Snow Light Snow
10:06 AM 33.8 °F 23.9 °F 30.2 °F 87% 29.88 in 3.0 mi North 15.0 mph - 0.00 in Snow Light Snow
10:33 AM 33.8 °F 25.3 °F 30.2 °F 87% 29.89 in 5.0 mi North 11.5 mph - 0.00 in Snow Light Snow
10:51 AM 34.0 °F 24.2 °F 30.0 °F 85% 29.92 in 10.0 mi North 15.0 mph - 0.00 in   Overcast
11:17 AM 33.8 °F 25.3 °F 28.4 °F 81% 29.90 in 10.0 mi North 11.5 mph 18.4 mph 0.00 in Snow Light Snow
11:51 AM 35.1 °F 25.2 °F 28.0 °F 76% 29.92 in 10.0 mi North 16.1 mph 25.3 mph 0.00 in   Overcast
12:51 PM 35.1 °F 26.9 °F 28.9 °F 78% 29.93 in 10.0 mi North 11.5 mph - N/A   Overcast
1:51 PM 35.1 °F 26.4 °F 28.0 °F 76% 29.94 in 10.0 mi North 12.7 mph - N/A   Overcast
2:51 PM 33.8 °F 24.3 °F 26.6 °F 75% 29.95 in 10.0 mi North 13.8 mph - N/A   Overcast
3:51 PM 33.1 °F 23.9 °F 26.1 °F 75% 29.99 in 10.0 mi NNE 12.7 mph 21.9 mph 0.00 in Snow Light Snow
4:51 PM 32.0 °F 22.5 °F 27.0 °F 82% 30.01 in 10.0 mi NE 12.7 mph - 0.00 in   Overcast
5:51 PM 30.9 °F 22.2 °F 27.0 °F 85% 30.04 in 10.0 mi NNE 10.4 mph - N/A   Overcast
6:51 PM 30.9 °F 21.2 °F 23.0 °F 72% 30.05 in 10.0 mi North 12.7 mph 23.0 mph N/A   Overcast
7:02 PM 30.2 °F 21.3 °F 23.0 °F 75% 30.03 in 10.0 mi North 10.4 mph - N/A   Overcast
7:51 PM 30.0 °F 21.7 °F 23.0 °F 75% 30.06 in 10.0 mi North 9.2 mph - N/A   Overcast
8:25 PM 30.2 °F 20.2 °F 23.0 °F 75% 30.04 in 10.0 mi North 12.7 mph - N/A   Overcast
8:36 PM 30.2 °F 18.9 °F 21.2 °F 69% 30.04 in 10.0 mi North 16.1 mph - N/A   Overcast
8:51 PM 28.9 °F 16.5 °F 21.9 °F 75% 30.06 in 10.0 mi North 18.4 mph 26.5 mph N/A   Overcast
9:24 PM 28.4 °F 19.1 °F 21.2 °F 74% 30.04 in 10.0 mi North 10.4 mph - N/A   Overcast
9:51 PM 28.9 °F 19.2 °F 19.9 °F 69% 30.07 in 10.0 mi North 11.5 mph - N/A   Overcast
10:34 PM 28.4 °F 18.5 °F 21.2 °F 74% 30.04 in 10.0 mi North 11.5 mph - N/A   Overcast
10:51 PM 28.0 °F 17.5 °F 21.0 °F 75% 30.06 in 10.0 mi North 12.7 mph - N/A   Overcast
11:51 PM 27.0 °F 16.1 °F 21.0 °F 78% 30.06 in 10.0 mi North 12.7 mph - N/A   Overcast